Wind_Speed
74 76 81 76 75 74 73 77 82 83 81 79 82 79 75 72 72 68 67 65 62 61 55 54 57 60 59 57 57 56 55 53 54 53 52 50 48 50 50 49 46 44 44 45
75 78 77 74 73 73 73 74 77 78 77 82 81 85 80 78 74 72 71 68 64 62 61 57 57 59 61 60 54 56 55 54 54 55 55 55 53 54 52 50 46 45 47 48
79 77 74 72 73 70 74 75 75 76 73 74 77 87 84 82 79 74 75 73 69 66 63 61 59 59 60 60 57 54 53 53 56 56 56 55 56 54 51 48 47 49 51 49
73 72 69 65 72 70 78 70 69 71 72 75 71 86 82 82 82 79 73 72 71 70 68 64 61 59 59 58 55 56 56 55 56 56 56 56 54 53 51 50 52 51 49 46
61 63 66 64 62 64 68 61 64 66 66 67 70 76 88 81 84 82 76 71 70 70 68 67 62 61 59 57 57 56 57 57 58 58 58 56 56 54 52 52 51 50 49 48
37 40 54 55 57 65 56 54 52 55 55 68 69 69 88 83 82 81 76 70 70 68 68 69 66 63 64 65 61 60 59 58 59 58 57 56 55 55 55 53 51 50 50 51
20 26 41 45 50 52 54 54 53 53 56 63 66 66 78 80 75 76 76 71 69 68 66 69 67 70 70 67 65 62 61 59 58 57 57 58 58 58 58 56 54 52 52 51
14 11 33 47 51 52 53 53 53 54 52 55 57 65 69 68 70 72 73 70 69 69 67 63 66 65 58 70 71 67 63 62 60 60 61 61 61 62 60 59 56 55 54 54
15 8 22 51 45 49 46 54 55 51 55 54 54 55 52 59 57 61 68 67 65 66 64 63 66 64 62 50 54 64 73 69 65 66 64 66 65 64 63 62 61 59 58 56
12 7 11 27 54 52 53 45 42 52 51 56 50 47 46 48 50 51 51 47 52 62 63 63 63 63 62 66 55 48 55 68 66 68 69 69 69 68 66 65 63 62 61 60
8 13 3 17 34 46 50 50 42 35 44 22 34 54 48 33 30 39 44 50 51 53 53 58 64 63 61 59 68 64 57 50 50 49 54 60 65 71 71 69 69 68 66 65
5 8 8 7 14 28 50 42 41 43 48 41 33 19 15 24 31 29 31 36 42 43 52 59 58 61 65 64 58 61 64 62 61 59 51 44 53 61 65 70 73 69 68 67
9 4 7 14 14 16 24 24 25 36 51 54 53 45 36 32 37 42 42 43 42 32 38 45 56 65 61 62 63 59 57 60 61 63 61 61 57 53 57 60 62 66 70 69
7 5 6 7 5 14 19 23 28 25 31 40 48 54 47 45 44 43 39 33 30 47 48 38 41 50 56 63 62 60 59 60 61 65 64 61 59 55 55 60 62 67 73 73
13 2 5 3 9 5 23 22 23 19 31 23 24 30 39 39 43 42 37 38 35 33 38 37 38 47 49 50 61 66 67 64 66 67 67 66 63 61 60 58 62 65 67 70
19 7 7 10 9 14 14 15 14 16 18 22 25 27 30 35 36 42 39 29 28 35 33 37 29 43 49 49 48 51 57 64 66 64 66 67 69 66 64 61 62 63 64 65
19 17 7 7 4 8 7 6 7 8 11 10 17 25 29 32 34 31 36 37 30 29 36 40 40 37 38 41 44 57 60 51 51 54 61 60 61 63 66 66 68 70 68 68
15 18 6 6 7 5 3 5 8 8 9 14 16 18 25 29 30 26 25 37 40 32 32 34 34 38 36 41 34 29 30 39 40 44 49 51 56 56 58 60 63 62 64 63
14 21 14 9 7 8 10 9 9 9 11 10 14 17 12 14 15 14 17 24 32 38 39 36 31 33 35 38 39 36 32 31 32 36 33 39 36 36 37 52 54 53 51 52
18 16 10 10 13 13 16 17 13 13 15 14 14 13 12 11 13 15 16 16 17 22 30 33 34 35 35 35 37 35 37 36 37 33 31 38 43 40 40 39 34 33 33 35
11 15 14 14 17 19 22 22 14 15 15 13 13 13 13 15 17 19 21 21 19 18 21 22 27 31 30 29 31 36 37 40 40 38 39 39 38 35 33 35 33 35 37 38
6 8 12 16 19 25 22 23 19 15 16 16 16 16 18 19 19 20 22 23 21 20 18 19 23 24 26 30 34 35 35 37 38 40 40 40 40 39 38 38 41 43 41 40
2 3 6 10 13 14 16 18 18 18 19 21 20 18 18 20 21 22 23 25 24 24 22 20 21 24 26 29 32 36 36 35 36 39 40 41 42 42 44 42 41 41 41 43
5 4 4 5 7 10 13 16 17 18 19 19 21 20 18 19 20 21 21 22 24 24 24 24 24 26 28 29 31 36 38 40 41 41 41 42 42 42 42 43 45 45 45 45
5 5 5 5 6 8 11 14 15 17 18 18 19 20 21 20 19 20 21 22 22 23 23 25 27 27 28 30 32 34 37 42 43 45 45 47 48 48 49 50 51 50 49 49
8 7 8 9 11 13 14 16 17 17 17 17 18 20 22 23 23 22 22 22 23 24 23 24 24 27 29 31 33 34 37 38 40 43 45 48 49 51 52 52 50 49 47 45
Wind_Direction
252 250 249 248 248 249 249 248 245 242 246 247 247 245 246 243 239 237 236 238 239 242 245 241 237 240 239 237 238 237 236 239 242 243 242 244 246 247 248 253 256 257 256 257
246 246 249 252 251 249 248 250 248 247 246 248 243 242 242 243 241 239 236 234 238 240 242 242 241 240 240 242 238 239 240 239 239 240 240 241 243 245 249 253 256 256 256 256
249 249 248 246 245 245 243 244 246 249 251 249 250 243 240 239 241 240 239 235 234 237 238 239 242 242 242 241 241 240 241 239 239 239 240 241 243 245 249 252 252 251 252 256
247 245 243 241 242 244 246 246 246 248 251 250 249 251 242 240 239 238 238 240 236 237 240 239 238 242 246 247 243 240 239 240 240 242 242 244 246 247 248 249 250 252 254 257
249 243 237 233 240 241 246 246 244 243 247 249 248 249 245 240 239 239 237 237 241 239 240 243 240 240 242 244 246 244 241 240 240 241 242 244 246 248 249 250 251 253 255 257
268 255 236 232 223 228 239 239 240 241 246 247 245 247 244 246 240 240 239 239 240 240 243 242 240 235 235 237 239 242 243 241 241 242 244 247 248 249 250 251 252 254 256 258
275 267 233 220 221 222 219 227 231 240 244 249 246 247 247 247 246 243 242 238 240 241 241 246 242 242 238 236 238 240 241 242 242 243 243 245 247 249 251 252 254 255 256 258
282 254 222 206 217 218 212 221 228 227 240 248 250 250 249 250 249 245 242 241 238 241 240 239 248 246 245 242 239 236 236 240 239 240 241 243 245 248 250 253 255 256 256 257
257 259 232 203 193 200 201 210 219 236 242 246 254 258 259 251 250 249 245 243 240 239 239 240 238 244 248 245 239 242 243 238 239 239 241 242 245 247 249 251 253 255 256 258
238 254 209 224 217 208 213 202 211 223 237 241 254 258 261 257 255 255 253 248 244 240 240 240 238 239 243 247 248 241 239 245 245 240 240 242 246 246 248 251 252 253 255 257
246 250 150 209 227 236 224 217 204 215 217 217 235 250 254 251 250 250 251 253 247 241 239 238 237 237 238 239 247 250 248 243 238 239 244 246 249 249 248 249 251 253 254 257
268 254 239 227 222 224 230 239 240 242 236 228 236 221 232 237 244 242 247 251 250 250 245 241 240 237 236 237 237 244 248 248 254 258 252 251 248 247 248 250 251 252 254 253
240 342 161 207 216 210 218 233 236 249 249 246 253 243 237 239 253 265 264 263 242 231 234 236 242 241 238 237 238 238 241 243 247 246 252 257 257 257 253 250 247 252 254 254
237 268 322 175 148 171 199 228 238 242 243 248 252 247 250 251 257 264 257 254 235 235 233 236 237 238 239 241 238 235 235 239 238 239 244 249 253 252 258 255 254 254 254 255
249 245 175 206 192 188 190 205 224 237 226 248 241 241 246 250 257 253 250 246 247 239 231 228 233 234 232 232 233 235 237 234 235 237 240 242 244 249 252 256 255 254 253 253
254 245 180 178 186 205 190 205 230 242 246 246 247 242 240 243 252 247 249 246 251 250 238 242 234 238 241 237 237 235 235 232 232 238 241 243 244 244 245 252 255 253 252 251
245 237 191 180 182 196 202 206 240 243 232 244 240 238 240 247 252 248 248 250 242 246 244 250 247 251 242 234 233 241 244 240 240 240 241 243 247 248 248 248 251 255 259 259
228 229 201 178 221 234 257 219 247 261 264 250 254 259 251 258 259 260 254 243 253 256 238 252 251 255 254 265 264 262 227 236 239 240 241 246 248 250 253 254 253 255 256 258
200 226 229 210 216 243 254 255 259 249 250 239 254 262 242 230 234 248 257 256 254 255 250 248 252 252 258 259 260 259 258 262 255 243 243 250 249 251 259 255 254 257 259 261
186 202 223 230 235 254 258 255 257 261 263 271 272 264 253 259 253 254 256 250 257 256 254 254 253 252 255 257 257 256 258 256 258 262 266 259 257 260 258 258 259 260 264 265
178 200 213 237 252 257 268 266 260 254 266 272 262 258 252 257 265 266 268 271 268 267 262 256 248 245 251 253 257 251 252 253 256 254 255 257 254 259 266 270 270 270 266 267
180 209 219 233 244 247 242 250 258 253 260 263 266 276 278 264 262 265 266 270 272 264 261 258 254 251 250 249 249 248 247 251 257 255 257 259 261 263 264 264 269 269 266 268
263 206 209 221 219 235 247 257 264 269 269 276 279 280 280 281 275 268 267 267 268 269 267 256 255 254 247 246 245 248 250 248 249 253 256 261 264 266 267 268 271 272 271 273
305 306 282 258 245 244 253 260 267 268 269 274 273 270 274 275 275 275 274 268 266 266 267 267 260 253 251 248 246 244 244 249 253 256 259 260 262 268 270 272 275 273 272 269
321 328 334 320 297 285 280 278 276 272 270 270 272 273 273 275 274 275 278 279 276 273 269 264 264 262 258 254 251 249 249 249 251 255 259 262 265 266 267 268 270 269 271 269
297 298 313 312 310 307 301 297 294 293 287 281 277 276 277 276 276 275 275 274 274 272 269 265 257 255 256 257 254 251 251 251 251 254 255 256 257 258 260 261 261 261 260 256
Height
5502 5493 5494 5515 5524 5536 5540 5537 5542 5556 5561 5566 5574 5586 5591 5600 5603 5611 5620 5626 5632 5637 5647 5652 5656 5659 5662 5666 5672 5680 5683 5689 5692 5695 5698 5702 5707 5708 5709 5712 5715 5719 5720 5720
5467 5466 5492 5503 5508 5514 5520 5521 5527 5539 5542 5543 5555 5560 5570 5576 5587 5597 5605 5613 5619 5625 5631 5639 5643 5648 5650 5656 5661 5667 5672 5676 5680 5683 5687 5691 5694 5695 5698 5701 5705 5708 5709 5709
5442 5469 5473 5475 5483 5487 5496 5503 5516 5522 5526 5529 5529 5534 5547 5559 5569 5581 5588 5598 5605 5612 5617 5624 5630 5636 5639 5643 5649 5655 5661 5665 5666 5670 5674 5679 5681 5685 5689 5693 5693 5694 5695 5699
5422 5448 5444 5456 5460 5475 5475 5501 5507 5508 5506 5504 5514 5505 5529 5545 5551 5558 5577 5586 5595 5600 5604 5610 5617 5624 5630 5635 5640 5642 5646 5652 5656 5661 5664 5668 5671 5674 5677 5679 5680 5683 5687 5689
5412 5420 5427 5434 5450 5459 5466 5487 5488 5492 5488 5491 5491 5493 5505 5523 5529 5547 5564 5575 5581 5588 5593 5599 5606 5612 5617 5621 5626 5630 5633 5637 5642 5647 5651 5655 5659 5662 5664 5666 5669 5672 5675 5677
5402 5403 5410 5423 5436 5443 5464 5463 5470 5474 5475 5464 5477 5482 5492 5498 5521 5536 5549 5562 5569 5573 5576 5581 5586 5591 5596 5602 5608 5613 5619 5624 5629 5633 5640 5644 5647 5650 5651 5654 5657 5660 5662 5665
5396 5396 5403 5413 5420 5430 5442 5451 5455 5457 5455 5453 5472 5466 5475 5490 5507 5524 5536 5544 5550 5556 5560 5563 5566 5574 5580 5587 5593 5599 5604 5609 5616 5621 5625 5629 5633 5635 5638 5641 5645 5647 5649 5652
5393 5393 5392 5405 5412 5423 5431 5437 5442 5445 5447 5452 5459 5451 5463 5487 5497 5502 5513 5525 5536 5540 5546 5551 5553 5558 5562 5570 5576 5581 5587 5594 5600 5605 5610 5614 5617 5620 5624 5628 5632 5634 5637 5638
5392 5391 5390 5397 5404 5413 5420 5422 5437 5440 5443 5446 5448 5453 5463 5473 5480 5488 5499 5509 5519 5525 5528 5533 5539 5543 5549 5555 5560 5565 5571 5579 5584 5589 5593 5598 5602 5606 5610 5613 5616 5620 5623 5625
5392 5391 5392 5394 5399 5406 5411 5422 5426 5431 5434 5436 5441 5445 5453 5467 5474 5481 5486 5494 5498 5505 5511 5518 5525 5531 5536 5543 5546 5549 5555 5563 5567 5571 5575 5581 5586 5591 5595 5598 5602 5605 5607 5610
5391 5392 5391 5393 5398 5400 5408 5414 5418 5421 5426 5428 5434 5437 5452 5461 5463 5467 5471 5476 5481 5489 5495 5502 5510 5517 5522 5527 5532 5536 5542 5547 5551 5555 5560 5565 5571 5575 5578 5582 5586 5589 5592 5594
5389 5390 5390 5393 5395 5399 5403 5408 5411 5412 5419 5424 5429 5439 5445 5451 5453 5456 5459 5462 5467 5473 5478 5486 5492 5500 5508 5514 5519 5523 5528 5534 5537 5542 5547 5550 5554 5558 5562 5566 5570 5573 5576 5579
5388 5389 5388 5393 5394 5396 5400 5404 5409 5412 5415 5418 5423 5436 5442 5444 5443 5445 5447 5451 5458 5461 5466 5469 5475 5483 5490 5497 5503 5509 5514 5519 5524 5528 5531 5536 5541 5544 5546 5548 5552 5556 5559 5562
5384 5385 5386 5388 5388 5391 5396 5400 5404 5407 5409 5415 5418 5430 5429 5430 5431 5433 5436 5439 5442 5447 5454 5459 5463 5468 5473 5481 5488 5493 5498 5504 5509 5513 5517 5521 5526 5530 5532 5533 5536 5539 5542 5545
5382 5384 5384 5386 5388 5391 5392 5397 5401 5402 5406 5409 5413 5417 5419 5423 5424 5426 5430 5433 5435 5438 5442 5449 5452 5456 5460 5465 5470 5477 5482 5487 5493 5498 5503 5507 5510 5514 5518 5519 5520 5522 5524 5527
5381 5383 5384 5387 5388 5391 5394 5397 5399 5401 5403 5405 5407 5410 5412 5416 5418 5419 5421 5424 5427 5430 5435 5437 5442 5445 5448 5453 5458 5463 5468 5472 5478 5483 5488 5492 5496 5498 5502 5504 5507 5509 5511 5512
5379 5382 5384 5386 5388 5391 5394 5395 5397 5398 5400 5401 5402 5404 5407 5408 5409 5411 5413 5417 5419 5422 5426 5429 5431 5435 5439 5443 5447 5451 5454 5460 5465 5470 5474 5478 5483 5485 5487 5490 5491 5493 5495 5496
5376 5380 5382 5385 5387 5390 5392 5393 5394 5395 5396 5398 5399 5399 5400 5401 5401 5403 5405 5408 5410 5414 5416 5420 5422 5425 5429 5431 5434 5438 5444 5451 5455 5458 5462 5466 5469 5471 5473 5474 5476 5477 5480 5482
5374 5379 5382 5384 5386 5389 5390 5391 5392 5392 5394 5394 5395 5395 5395 5396 5397 5397 5398 5400 5402 5405 5407 5410 5413 5415 5418 5422 5424 5429 5434 5439 5443 5445 5448 5452 5456 5459 5460 5461 5463 5464 5466 5468
5373 5377 5381 5382 5384 5386 5388 5390 5390 5391 5392 5392 5392 5393 5393 5394 5393 5393 5393 5395 5396 5397 5398 5400 5403 5407 5410 5412 5416 5420 5423 5428 5432 5434 5435 5440 5443 5445 5449 5451 5452 5453 5454 5456
5373 5374 5377 5379 5380 5384 5385 5386 5387 5389 5392 5389 5389 5390 5390 5390 5390 5390 5389 5389 5390 5390 5391 5392 5395 5398 5401 5404 5407 5412 5415 5419 5421 5423 5427 5430 5432 5434 5435 5438 5439 5441 5443 5445
5374 5376 5377 5378 5380 5382 5383 5385 5386 5385 5384 5385 5385 5385 5386 5386 5386 5385 5385 5384 5385 5386 5386 5387 5388 5391 5393 5395 5398 5401 5404 5407 5409 5412 5415 5417 5420 5422 5424 5427 5429 5430 5431 5432
5375 5375 5376 5378 5377 5378 5380 5380 5380 5380 5381 5380 5380 5380 5380 5380 5380 5381 5381 5380 5380 5380 5380 5381 5382 5384 5386 5388 5390 5391 5394 5396 5399 5401 5403 5404 5406 5408 5412 5415 5416 5417 5418 5419
5375 5374 5374 5375 5376 5376 5376 5377 5376 5376 5377 5376 5376 5376 5376 5376 5375 5375 5375 5375 5375 5375 5374 5375 5376 5377 5379 5381 5382 5384 5385 5387 5388 5390 5391 5393 5395 5396 5397 5398 5400 5402 5405 5406
5376 5374 5373 5373 5373 5373 5373 5373 5373 5373 5373 5372 5372 5372 5371 5371 5370 5369 5368 5368 5368 5368 5368 5368 5368 5369 5370 5372 5374 5375 5376 5377 5378 5378 5379 5380 5382 5384 5386 5387 5390 5391 5392 5393
5375 5374 5374 5373 5372 5371 5371 5370 5369 5368 5367 5367 5366 5366 5366 5365 5365 5364 5363 5362 5361 5361 5361 5362 5361 5361 5362 5362 5363 5364 5365 5366 5368 5370 5371 5371 5372 5374 5375 5376 5377 5377 5378 5380